Location: Mentone
(34.5413°N, 85.5351°W)
Time: 17:26:27
(UTC-05:00)

Tiros 1 despin weight - All Passes

Search period start: 28 June 2016 00:00
Search period end: 08 July 2016 00:00
Orbit: 596 x 645 km, 48.2° (Epoch: 27 June)

Date Brightness Start Highest point End Pass type
(mag) Time Alt. Az. Time Alt. Az. Time Alt. Az.
28 Jun - 11:06:08 10° SW 11:10:32 60° SE 11:15:00 10° ENE daylight
28 Jun - 12:48:27 10° W 12:52:22 28° NNW 12:56:21 10° NE daylight
28 Jun - 14:32:33 10° NW 14:35:11 15° N 14:37:49 10° NNE daylight
28 Jun - 16:14:49 10° NNW 16:18:11 20° NNE 16:21:35 10° ENE daylight
28 Jun - 17:55:53 10° NW 18:00:30 62° NNE 18:05:10 10° ESE daylight
28 Jun - 19:38:15 10° W 19:41:49 22° SW 19:45:24 10° S daylight
29 Jun - 09:43:32 10° S 09:46:35 18° SE 09:49:39 10° E daylight
29 Jun - 11:23:21 10° WSW 11:27:47 67° NW 11:32:19 10° NE daylight
29 Jun - 13:06:42 10° WNW 13:10:03 20° NNW 13:13:25 10° NNE daylight
29 Jun - 14:50:27 10° NNW 14:53:03 15° N 14:55:40 10° NE daylight
29 Jun - 16:31:54 10° NW 16:35:52 27° NNE 16:39:53 10° E daylight
29 Jun - 18:13:09 10° WNW 18:17:47 68° SW 18:22:27 10° SE daylight
30 Jun - 09:59:27 10° SSW 10:03:36 39° SE 10:07:48 10° ENE daylight
30 Jun - 11:41:04 10° W 11:45:12 36° NNW 11:49:26 10° NE daylight
30 Jun - 13:25:04 10° NW 13:27:50 16° N 13:30:38 10° NNE daylight
30 Jun - 15:07:52 10° NNW 15:10:53 17° NNE 15:13:56 10° NE daylight
30 Jun - 16:48:57 10° NW 16:53:24 45° NNE 16:57:53 10° ESE daylight
30 Jun - 18:30:47 10° WNW 18:34:55 32° SW 18:39:05 10° SSE daylight
01 Jul - 08:38:15 10° SSE 08:39:46 12° SE 08:41:16 10° ESE daylight
01 Jul - 10:16:19 10° SW 10:20:46 85° SE 10:25:17 10° NE daylight
01 Jul - 11:59:10 10° WNW 12:02:48 23° NNW 12:06:29 10° NNE daylight
01 Jul - 13:43:12 10° NW 13:45:42 14° N 13:48:14 10° NNE daylight
01 Jul - 15:25:00 10° NNW 15:28:38 22° NNE 15:32:18 10° ENE daylight
01 Jul - 17:06:07 10° NW 17:10:45 84° NE 17:15:27 10° SE daylight
01 Jul - 18:49:15 10° W 18:51:55 15° SW 18:54:35 10° SSW daylight
02 Jul - 08:53:02 10° S 08:56:42 26° SE 09:00:25 10° ENE daylight
02 Jul - 10:33:46 10° WSW 10:38:05 49° NNW 10:42:29 10° NE daylight
02 Jul - 12:17:30 10° NW 12:20:32 17° NNW 12:23:35 10° NNE daylight
02 Jul - 14:00:50 10° NNW 14:03:34 15° N 14:06:18 10° NE daylight
02 Jul - 15:42:03 10° NW 15:46:15 34° NNE 15:50:29 10° E daylight
02 Jul - 17:23:31 10° WNW 17:27:58 48° SW 17:32:28 10° SSE daylight
03 Jul - 09:09:28 10° SW 09:13:47 56° SE 09:18:10 10° ENE daylight
03 Jul - 10:51:41 10° W 10:55:35 29° NNW 10:59:33 10° NE daylight
03 Jul - 12:35:48 10° NW 12:38:21 15° N 12:40:55 10° NNE daylight
03 Jul - 14:18:06 10° NNW 14:21:22 19° NNE 14:24:40 10° ENE daylight
03 Jul - 15:59:08 10° NW 16:03:42 59° NE 16:08:17 10° ESE daylight
03 Jul - 17:41:25 10° W 17:45:02 23° SW 17:48:41 10° S daylight
04 Jul - 07:46:59 10° S 07:49:52 17° SE 07:52:45 10° E daylight
04 Jul - 09:26:37 10° WSW 09:31:02 70° NW 09:35:30 10° NE daylight
04 Jul - 11:09:55 10° WNW 11:13:15 20° NNW 11:16:36 10° NNE daylight
04 Jul - 12:53:43 10° NNW 12:56:13 14° N 12:58:45 10° NE daylight
04 Jul - 14:35:10 10° NW 14:39:03 26° NNE 14:42:58 10° E daylight
04 Jul - 16:16:23 10° WNW 16:20:59 71° SW 16:25:37 10° SE daylight
05 Jul - 08:02:48 10° SSW 08:06:52 37° SE 08:10:58 10° ENE daylight
05 Jul - 09:44:18 10° W 09:48:26 37° NNW 09:52:38 10° NE daylight
05 Jul - 11:28:18 10° NW 11:31:02 16° N 11:33:47 10° NNE daylight
05 Jul - 13:11:10 10° NNW 13:14:04 16° NNE 13:17:00 10° NE daylight
05 Jul - 14:52:13 10° NW 14:56:35 42° NNE 15:01:00 10° ESE daylight
05 Jul - 16:33:58 10° WNW 16:38:08 33° SW 16:42:19 10° SSE daylight
06 Jul - 06:42:02 10° SE 06:43:02 11° SE 06:44:02 10° ESE daylight
06 Jul - 08:19:36 10° SW 08:24:00 81° SE 08:28:29 10° NE daylight
06 Jul - 10:02:23 10° WNW 10:06:00 24° NNW 10:09:40 10° NNE daylight
06 Jul - 11:46:28 10° NW 11:48:52 14° N 11:51:19 10° NNE daylight
06 Jul - 13:28:17 10° NNW 13:31:49 22° NNE 13:35:22 10° ENE daylight
06 Jul - 15:09:22 10° NW 15:13:58 80° NE 15:18:36 10° SE daylight
06 Jul - 16:52:21 10° W 16:55:07 16° SW 16:57:55 10° SSW daylight
07 Jul - 06:56:24 10° S 06:59:58 24° SE 07:03:34 10° ENE daylight
07 Jul - 08:37:01 10° WSW 08:41:19 51° NNW 08:45:42 10° NE daylight
07 Jul - 10:20:43 10° WNW 10:23:43 17° NNW 10:26:44 10° NNE daylight
07 Jul - 12:04:08 10° NNW 12:06:45 15° N 12:09:22 10° NE daylight
07 Jul - 13:45:20 10° NW 13:49:26 32° NNE 13:53:35 10° E daylight
07 Jul - 15:26:44 10° WNW 15:31:10 50° SW 15:35:40 10° SSE daylight
